• In Hungary
  • List of Countries
  • For 7 days
  • Water Temperature
  • Satellite Maps
  • Weather Map
  • News
  • Weather Widgets
  • user-avatar
    Login

    Hourly Weather Toshner

    Today, 22 October, Monday

    Time Temperature Precipitation Wind Pressure Humidity
    00:00 +1°C° 0 mm 0 mps 758 mmHg 86%
    01:00 +1°C° 0 mm 0 mps 758 mmHg 87%
    02:00 +1°C° 0 mm 0 mps 758 mmHg 88%
    03:00 0°C° 0 mm 0 mps 758 mmHg 90%
    04:00 +1°C° 0 mm 1 mps 758 mmHg 91%
    05:00 +1°C° 0 mm 1 mps 758 mmHg 91%
    06:00 +1°C° 0 mm 1 mps 758 mmHg 92%
    07:00 +1°C° 0 mm 2 mps 758 mmHg 88%
    08:00 +2°C° 0 mm 2 mps 758 mmHg 83%
    09:00 +3°C° 0 mm 2 mps 758 mmHg 78%
    10:00 +3°C° 0 mm 3 mps 758 mmHg 74%
    11:00 +4°C° 0 mm 3 mps 757 mmHg 70%
    12:00 +5°C° 0 mm 4 mps 757 mmHg 65%
    13:00 +5°C° 0 mm 4 mps 756 mmHg 66%
    14:00 +5°C° 0 mm 4 mps 756 mmHg 66%
    15:00 +5°C° 0 mm 4 mps 755 mmHg 66%
    16:00 +5°C° 0 mm 4 mps 755 mmHg 70%
    17:00 +4°C° 0 mm 4 mps 754 mmHg 74%
    18:00 +3°C° 0 mm 4 mps 754 mmHg 78%
    19:00 +3°C° 0 mm 4 mps 753 mmHg 79%
    20:00 +3°C° 0 mm 4 mps 753 mmHg 79%
    21:00 +2°C° 0 mm 5 mps 752 mmHg 80%
    22:00 +2°C° 0 mm 5 mps 752 mmHg 82%
    23:00 +2°C° 0 mm 5 mps 751 mmHg 84%

    Tomorrow, 23 October, Tuesday

    Time Temperature Precipitation Wind Pressure Humidity
    00:00 +2°C° 0 mm 5 mps 751 mmHg 86%
    01:00 +3°C° 0 mm 4 mps 750 mmHg 88%
    02:00 +3°C° 0 mm 4 mps 750 mmHg 91%
    03:00 +4°C° 0 mm 4 mps 749 mmHg 93%
    04:00 +4°C° 0 mm 4 mps 749 mmHg 91%
    05:00 +5°C° 0 mm 5 mps 748 mmHg 90%
    06:00 +6°C° 0 mm 5 mps 747 mmHg 89%
    07:00 +6°C° 0.3 mm 5 mps 747 mmHg 87%
    08:00 +5°C° 0.3 mm 6 mps 746 mmHg 84%
    09:00 +5°C° 0.3 mm 6 mps 746 mmHg 82%
    10:00 +7°C° 0.5 mm 6 mps 745 mmHg 82%
    11:00 +7°C° 0.5 mm 6 mps 745 mmHg 82%
    12:00 +7°C° 0.5 mm 6 mps 744 mmHg 82%
    13:00 +6°C° 0.9 mm 7 mps 744 mmHg 84%
    14:00 +6°C° 0.9 mm 7 mps 743 mmHg 85%
    15:00 +6°C° 0.9 mm 7 mps 743 mmHg 86%
    16:00 +6°C° 0.7 mm 7 mps 742 mmHg 86%
    17:00 +7°C° 0.7 mm 6 mps 742 mmHg 85%
    18:00 +7°C° 0.7 mm 6 mps 741 mmHg 85%
    19:00 +7°C° 0.6 mm 6 mps 741 mmHg 86%
    20:00 +7°C° 0.6 mm 5 mps 741 mmHg 88%
    21:00 +6°C° 0.6 mm 5 mps 741 mmHg 89%
    22:00 +6°C° 0.3 mm 4 mps 740 mmHg 91%
    23:00 +7°C° 0.3 mm 3 mps 740 mmHg 92%

    Day after tomorrow, 24 October, Wednesday

    Time Temperature Precipitation Wind Pressure Humidity
    00:00 +5°C° 0.3 mm 3 mps 740 mmHg 93%
    01:00 +6°C° 0 mm 2 mps 740 mmHg 94%
    02:00 +5°C° 0 mm 2 mps 739 mmHg 94%
    03:00 +4°C° 0 mm 2 mps 739 mmHg 95%
    04:00 +4°C° 0 mm 2 mps 739 mmHg 94%
    05:00 +4°C° 0 mm 2 mps 739 mmHg 94%
    06:00 +3°C° 0 mm 2 mps 739 mmHg 94%
    07:00 +3°C° 0 mm 3 mps 739 mmHg 90%
    08:00 +4°C° 0 mm 3 mps 738 mmHg 86%
    09:00 +5°C° 0 mm 3 mps 738 mmHg 82%
    10:00 +6°C° 0 mm 4 mps 738 mmHg 77%
    11:00 +7°C° 0 mm 4 mps 738 mmHg 72%
    12:00 +8°C° 0 mm 4 mps 738 mmHg 67%
    13:00 +8°C° 0 mm 4 mps 738 mmHg 67%
    14:00 +7°C° 0 mm 4 mps 738 mmHg 67%
    15:00 +7°C° 0 mm 4 mps 737 mmHg 68%
    16:00 +7°C° 0 mm 4 mps 738 mmHg 70%
    17:00 +6°C° 0 mm 4 mps 738 mmHg 73%
    18:00 +6°C° 0 mm 4 mps 738 mmHg 75%
    19:00 +6°C° 0.1 mm 4 mps 738 mmHg 76%
    20:00 +6°C° 0.1 mm 4 mps 738 mmHg 77%
    21:00 +6°C° 0.1 mm 4 mps 738 mmHg 78%
    22:00 +6°C° 0.3 mm 4 mps 738 mmHg 79%
    23:00 +6°C° 0.3 mm 4 mps 738 mmHg 81%

    25 October, Thursday

    Time Temperature Precipitation Wind Pressure Humidity
    00:00 +5°C° 0.3 mm 4 mps 738 mmHg 82%
    01:00 +5°C° 0.5 mm 4 mps 737 mmHg 83%
    02:00 +5°C° 0.5 mm 5 mps 737 mmHg 84%
    03:00 +5°C° 0.5 mm 5 mps 737 mmHg 85%
    04:00 +6°C° 0.6 mm 5 mps 736 mmHg 86%
    05:00 +5°C° 0.6 mm 6 mps 736 mmHg 87%
    06:00 +5°C° 0.6 mm 6 mps 736 mmHg 88%
    07:00 +7°C° 0.7 mm 6 mps 735 mmHg 89%
    08:00 +7°C° 0.7 mm 6 mps 735 mmHg 90%
    09:00 +8°C° 0.7 mm 6 mps 735 mmHg 92%
    10:00 +8°C° 1.1 mm 6 mps 735 mmHg 91%
    11:00 +9°C° 1.1 mm 7 mps 734 mmHg 90%
    12:00 +9°C° 1.1 mm 7 mps 734 mmHg 89%
    13:00 +9°C° 0.5 mm 7 mps 733 mmHg 88%
    14:00 +9°C° 0.5 mm 7 mps 733 mmHg 86%
    15:00 +9°C° 0.5 mm 7 mps 732 mmHg 85%
    16:00 +9°C° 0.4 mm 7 mps 732 mmHg 84%
    17:00 +9°C° 0.4 mm 7 mps 731 mmHg 83%
    18:00 +10°C° 0.4 mm 8 mps 731 mmHg 82%
    19:00 +9°C° 1 mm 7 mps 731 mmHg 84%
    20:00 +9°C° 1 mm 7 mps 731 mmHg 85%
    21:00 +9°C° 1 mm 6 mps 731 mmHg 87%
    22:00 +8°C° 0.5 mm 5 mps 731 mmHg 83%
    23:00 +8°C° 0.5 mm 5 mps 731 mmHg 80%

    26 October, Friday

    Time Temperature Precipitation Wind Pressure Humidity
    00:00 +7°C° 0.5 mm 4 mps 731 mmHg 77%
    01:00 +7°C° 0.1 mm 4 mps 731 mmHg 76%
    02:00 +6°C° 0.1 mm 4 mps 731 mmHg 76%
    03:00 +6°C° 0.1 mm 4 mps 731 mmHg 75%
    04:00 +5°C° 0 mm 4 mps 731 mmHg 77%
    05:00 +5°C° 0 mm 4 mps 731 mmHg 78%
    06:00 +5°C° 0 mm 4 mps 731 mmHg 79%
    07:00 +5°C° 0 mm 5 mps 731 mmHg 78%
    08:00 +5°C° 0 mm 5 mps 731 mmHg 77%
    09:00 +4°C° 0 mm 6 mps 732 mmHg 76%
    10:00 +4°C° 0 mm 6 mps 732 mmHg 74%
    11:00 +4°C° 0 mm 6 mps 732 mmHg 72%
    12:00 +4°C° 0 mm 6 mps 732 mmHg 70%
    13:00 +4°C° 0 mm 6 mps 732 mmHg 70%
    14:00 +4°C° 0 mm 6 mps 732 mmHg 70%
    15:00 +4°C° 0 mm 6 mps 733 mmHg 69%
    16:00 +4°C° 0 mm 6 mps 733 mmHg 73%
    17:00 +3°C° 0 mm 5 mps 733 mmHg 76%
    18:00 +2°C° 0 mm 5 mps 734 mmHg 79%
    19:00 +2°C° 0 mm 5 mps 734 mmHg 80%
    20:00 +2°C° 0 mm 5 mps 734 mmHg 81%
    21:00 +2°C° 0 mm 5 mps 735 mmHg 82%
    22:00 +3°C° 0 mm 4 mps 735 mmHg 82%
    23:00 +1°C° 0 mm 4 mps 736 mmHg 82%

    27 October, Saturday

    Time Temperature Precipitation Wind Pressure Humidity
    00:00 +1°C° 0 mm 4 mps 736 mmHg 82%
    01:00 +1°C° 0 mm 4 mps 737 mmHg 83%
    02:00 0°C° 0 mm 4 mps 737 mmHg 83%
    03:00 0°C° 0 mm 4 mps 738 mmHg 84%
    04:00 -1°C° 0 mm 5 mps 738 mmHg 84%
    05:00 -1°C° 0 mm 5 mps 739 mmHg 84%
    06:00 -1°C° 0 mm 5 mps 739 mmHg 84%
    07:00 -1°C° 0 mm 5 mps 740 mmHg 82%
    08:00 -1°C° 0 mm 5 mps 741 mmHg 80%
    09:00 -1°C° 0 mm 5 mps 741 mmHg 77%
    10:00 -2°C° 0 mm 6 mps 742 mmHg 75%
    11:00 -1°C° 0 mm 6 mps 742 mmHg 72%
    12:00 -1°C° 0 mm 6 mps 743 mmHg 70%
    13:00 +1°C° 0 mm 6 mps 744 mmHg 69%
    14:00 +1°C° 0 mm 6 mps 744 mmHg 68%
    15:00 +1°C° 0 mm 6 mps 745 mmHg 67%
    16:00 +1°C° 0 mm 6 mps 745 mmHg 68%
    17:00 -1°C° 0 mm 6 mps 746 mmHg 70%
    18:00 0°C° 0 mm 5 mps 747 mmHg 72%
    19:00 0°C° 0 mm 5 mps 747 mmHg 73%
    20:00 0°C° 0 mm 4 mps 747 mmHg 73%
    21:00 0°C° 0 mm 4 mps 748 mmHg 74%
    22:00 0°C° 0 mm 4 mps 748 mmHg 77%
    23:00 0°C° 0 mm 3 mps 748 mmHg 80%

    28 October, Sunday

    Time Temperature Precipitation Wind Pressure Humidity
    00:00 0°C° 0 mm 3 mps 748 mmHg 83%
    01:00 0°C° 0 mm 3 mps 749 mmHg 83%
    02:00 0°C° 0 mm 4 mps 749 mmHg 83%
    03:00 0°C° 0 mm 4 mps 749 mmHg 83%
    04:00 0°C° 0.1 mm 5 mps 748 mmHg 83%
    05:00 +1°C° 0.1 mm 5 mps 748 mmHg 84%
    06:00 +1°C° 0.1 mm 5 mps 748 mmHg 84%
    07:00 +1°C° 0.2 mm 6 mps 747 mmHg 84%
    08:00 +2°C° 0.2 mm 6 mps 747 mmHg 83%
    09:00 +2°C° 0.2 mm 7 mps 747 mmHg 82%
    10:00 +3°C° 0.1 mm 7 mps 747 mmHg 81%
    11:00 +4°C° 0.1 mm 6 mps 747 mmHg 80%
    12:00 +5°C° 0.1 mm 6 mps 748 mmHg 79%
    13:00 +5°C° 0.3 mm 6 mps 748 mmHg 82%
    14:00 +6°C° 0.3 mm 5 mps 748 mmHg 84%
    15:00 +6°C° 0.3 mm 5 mps 748 mmHg 87%
    16:00 +6°C° 0.2 mm 4 mps 748 mmHg 89%
    17:00 +6°C° 0.2 mm 4 mps 748 mmHg 91%
    18:00 +5°C° 0.2 mm 3 mps 749 mmHg 93%
    19:00 +5°C° 0.2 mm 3 mps 749 mmHg 94%
    20:00 +6°C° 0.2 mm 2 mps 749 mmHg 95%
    21:00 +6°C° 0.2 mm 2 mps 749 mmHg 97%
    22:00 +6°C° 0.8 mm 2 mps 749 mmHg 97%
    23:00 +7°C° 0.8 mm 1 mps 749 mmHg 97%
    Show more